This demonstration page uses our WeatherBlox Daily Observations layout. Learn more.

Left ArrowRight Arrow

40.92945, -100.16068

Hourly Observations for October 5, 2020

Temp ( °F °C ) Dew Point ( °F °C ) Humidity (%) Winds ( mph kmh ) Pressure ( in mb ) Visibility ( mi km ) Precip ( " mm )
12:15 am 00:15 Clear 59 14.8 40 4.3 50 50 S 14 22 29.95 1014 10 16.0934 0 0
12:35 am 00:35 Clear 58 14.6 40 4.3 50 50 S 14 22 29.95 1014 10 16.0934 0 0
12:55 am 00:55 Clear 58 14.5 40 4.5 51 51 S 14 22 29.94 1014 10 16.0934 0 0
1:15 am 01:15 Clear 57 14 40 4.5 53 53 S 12 19 29.93 1014 10 16.0934 0 0
1:35 am 01:35 Partly Cloudy 57 13.7 40 4.5 54 54 S 10 17 29.94 1014 10 16.0934 0 0
1:55 am 01:55 Mostly Cloudy 56 13.5 40 4.5 55 55 S 9 15 29.94 1014 10 16.0934 0 0
2:15 am 02:15 Cloudy 56 13.6 40 4.5 54 54 S 13 20 29.93 1013 10 16.0934 0 0
2:35 am 02:35 Cloudy 57 13.9 40 4.5 53 53 S 15 24 29.93 1013 10 16.0934 0 0
2:55 am 02:55 Cloudy 57 14 40 4.3 52 52 S 13 20 29.92 1013 10 16.0934 0 0
3:15 am 03:15 Partly Cloudy 57 14 39 4.1 52 52 S 13 20 29.91 1013 10 16.0934 0 0
3:35 am 03:35 Clear 57 13.7 39 4 52 52 S 10 17 29.92 1013 10 16.0934 0 0
3:55 am 03:55 Clear 57 13.7 39 3.7 51 51 S 9 15 29.91 1013 10 16.0934 0 0
4:15 am 04:15 Clear 57 13.9 38 3.5 50 50 S 8 13 29.91 1013 10 16.0934 0 0
4:35 am 04:35 Clear 58 14.4 38 3.5 48 48 SSW 8 13 29.9 1013 10 16.0934 0 0
4:55 am 04:55 Clear 58 14.5 38 3.3 47 47 S 7 11 29.89 1012 10 16.0934 0 0
5:15 am 05:15 Clear 58 14.5 38 3.2 47 47 S 7 11 29.89 1012 10 16.0934 0 0
5:35 am 05:35 Clear 58 14.5 38 3.3 47 47 S 8 13 29.89 1012 10 16.0934 0 0
5:55 am 05:55 Clear 58 14.2 38 3.3 48 48 S 6 9 29.88 1012 10 16.0934 0 0
6:15 am 06:15 Clear 57 14.1 38 3.3 48 48 SSW 8 13 29.88 1012 10 16.0934 0 0
6:35 am 06:35 Clear 57 13.7 38 3.5 50 50 NW 5 7 29.89 1012 10 16.0934 0 0
6:55 am 06:55 Clear 55 12.7 38 3.5 54 54 SW 5 7 29.9 1012 10 16.0934 0 0
7:15 am 07:15 Clear 54 12 38 3.5 56 56 SSW 13 20 29.89 1012 10 16.0934 0 0
7:35 am 07:35 Clear 52 11.1 38 3.6 60 60 SW 6 9 29.91 1013 10 16.0934 0 0
7:55 am 07:55 Sunny 52 11.3 38 3.5 59 59 S 7 11 29.91 1013 10 16.0934 0 0
8:15 am 08:15 Sunny 51 10.4 38 3.6 63 63 S 9 15 29.91 1013 10 16.0934 0 0
8:35 am 08:35 Sunny 53 11.5 39 3.8 59 59 Calm 29.91 1013 10 16.0934 0 0
8:55 am 08:55 Sunny 53 11.4 39 4.1 61 61 SW 7 11 29.91 1013 10 16.0934 0 0
9:15 am 09:15 Sunny 56 13.1 40 4.3 55 55 SSW 9 15 29.89 1012 10 16.0934 0 0
9:35 am 09:35 Sunny 56 13.6 40 4.3 54 54 SSW 12 19 29.89 1012 10 16.0934 0 0
11:55 am 11:55 undefined 70 21 37 3 31 31 SW 12 19 29.8 1009 10 16.0934 0 0
12:15 pm 12:15 undefined 71 21.8 38 3.2 30 30 SW 12 19 29.8 1009 N/A 0 0
12:35 pm 12:35 Sunny 73 22.7 37 3 28 28 W 9 15 29.79 1009 10 16.0934 0 0
12:55 pm 12:55 Sunny 75 24.1 36 2.1 24 24 W 8 13 29.78 1008 10 16.0934 0 0
1:15 pm 13:15 Sunny 77 25 36 2.1 22 22 WNW 7 11 29.77 1008 10 16.0934 0 0
1:35 pm 13:35 Sunny 79 25.9 36 2.2 21 21 WNW 7 11 29.75 1008 10 16.0934 0 0
1:55 pm 13:55 Sunny 80 26.8 37 2.6 21 21 WNW 8 13 29.75 1007 10 16.0934 0 0
2:15 pm 14:15 Sunny 82 27.6 36 2.3 19 19 NNW 5 7 29.73 1007 10 16.0934 0 0
2:35 pm 14:35 Sunny 83 28.5 37 2.7 19 19 WNW 3 6 29.72 1006 10 16.0934 0 0
2:55 pm 14:55 Sunny 86 29.9 37 2.6 17 17 NNW 10 17 29.7 1006 10 16.0934 0 0
3:15 pm 15:15 Sunny 88 31.1 35 1.9 15 15 N 13 20 29.69 1005 10 16.0934 0 0
3:35 pm 15:35 Sunny 89 31.5 33 0.6 14 14 NNW 13 20 29.69 1005 10 16.0934 0 0
3:55 pm 15:55 Sunny 89 31.7 32 0.1 13 13 NNW 14 22 29.69 1005 10 16.0934 0 0
4:15 pm 16:15 Sunny 89 31.6 30 -1.2 12 12 N 16 26 29.7 1006 10 16.0934 0 0
4:35 pm 16:35 Sunny 88 31.3 32 0.2 13 13 NNW 14 22 29.71 1006 10 16.0934 0 0
4:55 pm 16:55 Sunny 86 30.1 32 0.2 14 14 N 18 30 29.73 1007 10 16.0934 0 0
5:15 pm 17:15 Sunny 85 29.5 33 0.8 16 16 N 18 30 29.74 1007 10 16.0934 0 0
5:35 pm 17:35 Sunny 84 28.7 35 1.4 17 17 N 15 24 29.76 1008 10 16.0934 0 0
5:55 pm 17:55 Sunny 82 28 35 1.5 18 18 N 15 24 29.78 1008 10 16.0934 0 0
6:15 pm 18:15 Sunny 81 27 35 1.5 19 19 N 16 26 29.8 1009 10 16.0934 0 0
6:35 pm 18:35 Sunny 79 25.9 35 1.8 21 21 N 15 24 29.82 1010 10 16.0934 0 0
6:55 pm 18:55 Sunny 76 24.7 38 3.5 25 25 N 12 19 29.84 1011 10 16.0934 0 0
7:15 pm 19:15 Clear 74 23.5 39 3.7 28 28 N 9 15 29.87 1012 10 16.0934 0 0
7:35 pm 19:35 Clear 71 21.6 39 4 32 32 N 7 11 29.9 1012 10 16.0934 0 0
7:55 pm 19:55 Clear 69 20.8 40 4.5 34 34 N 9 15 29.93 1013 10 16.0934 0 0
8:15 pm 20:15 Clear 69 20.4 40 4.7 36 36 N 9 15 29.94 1014 10 16.0934 0 0
8:35 pm 20:35 Clear 66 18.8 41 5 40 40 N 8 13 29.96 1015 10 16.0934 0 0
8:55 pm 20:55 Clear 65 18.6 41 5.2 42 42 N 9 15 29.97 1015 10 16.0934 0 0
9:15 pm 21:15 Clear 64 17.8 42 5.3 44 44 N 7 11 29.99 1016 10 16.0934 0 0
9:35 pm 21:35 Clear 61 16.1 42 5.3 49 49 N 7 11 30.01 1016 10 16.0934 0 0
9:55 pm 21:55 Clear 58 14.6 41 5 53 53 N 7 11 30.02 1017 10 16.0934 0 0
10:15 pm 22:15 Clear 57 13.7 41 5 56 56 N 5 7 30.04 1017 10 16.0934 0 0
10:35 pm 22:35 Clear 52 11.2 40 4.2 62 62 Calm 30.07 1018 10 16.0934 0 0
10:55 pm 22:55 Clear 52 11.1 40 4.5 64 64 W 5 7 30.07 1018 10 16.0934 0 0
11:15 pm 23:15 Clear 50 10.1 40 4.7 69 69 WNW 6 9 30.09 1019 10 16.0934 0 0
11:35 pm 23:35 Clear 50 10.1 40 4.7 69 69 WNW 8 13 30.1 1019 10 16.0934 0 0
11:55 pm 23:55 Clear 48 9 40 4.6 74 74 NW 7 11 30.11 1020 10 16.0934 0 0

Powered by AerisWeather